Temp
10 10 10 11 11 10 11 12 12 12 12 12 12 12 13 13 14 14 13 14 14 14 13 13 13 12 12 12 11 11 10 10 9 9 9 9 9 9 9 9 9 8 8 8 8 8 8 8 8
10 10 10 10 10 10 11 11 11 11 12 13 12 12 12 13 14 14 14 14 14 14 13 13 13 12 12 11 11 11 10 10 10 9 9 9 9 9 9 9 8 8 8 8 8 8 8 8 8
9 10 10 10 11 11 11 11 11 12 12 13 13 13 12 13 13 13 13 14 14 13 13 12 12 12 11 11 11 11 10 10 10 9 9 9 9 9 8 8 8 8 8 8 8 8 8 8 8
9 9 9 10 11 10 10 11 11 12 11 12 13 12 13 13 13 13 12 13 12 12 12 12 12 12 11 11 10 10 11 10 10 9 9 9 9 8 8 8 8 8 8 8 8 8 8 8 8
9 9 8 10 11 11 10 11 10 10 10 11 11 12 12 12 12 12 12 12 12 12 11 11 11 11 11 11 10 10 10 10 10 10 9 9 9 9 8 8 8 8 8 8 8 9 8 8 8
8 8 8 9 10 10 11 10 10 10 10 10 10 11 11 12 12 12 12 11 11 11 11 11 11 11 11 11 10 10 10 10 10 9 9 9 9 9 8 8 8 8 8 8 8 9 9 8 8
8 8 8 9 9 10 10 9 9 10 10 10 10 11 11 11 11 11 11 11 11 11 11 11 11 10 11 10 10 10 10 10 10 9 9 9 9 9 9 8 8 8 8 9 9 8 8 8 8
8 7 7 8 8 9 9 9 9 9 11 10 9 10 10 11 11 11 11 11 11 11 10 10 10 10 10 10 10 9 9 9 10 10 9 9 9 9 9 9 8 8 8 9 9 9 8 8 7
7 7 7 9 9 9 9 9 9 9 9 9 9 9 10 10 11 11 11 11 11 11 10 10 9 10 9 9 9 9 9 10 10 10 10 9 9 9 9 8 8 8 8 8 8 8 8 8 8
6 7 8 9 8 8 8 8 9 10 10 9 9 9 9 10 11 11 11 11 11 11 10 10 10 9 9 9 9 9 9 9 10 10 10 9 9 9 9 9 8 8 8 8 8 8 8 8 7
7 7 7 7 7 7 8 8 9 9 10 10 9 9 9 10 10 10 10 10 10 10 10 10 10 10 9 9 9 9 9 9 9 10 10 9 9 9 9 9 9 8 8 8 8 8 8 8 7
6 7 7 7 7 8 8 8 9 8 9 9 9 9 9 9 9 9 9 10 10 10 10 10 10 10 10 10 10 10 10 9 9 9 9 9 9 9 9 9 8 8 8 8 8 7 7 7 7
7 8 8 7 7 8 8 8 8 9 9 9 9 9 9 9 9 9 9 9 9 10 10 10 10 10 10 10 10 9 9 9 9 9 9 9 9 9 8 8 8 8 7 7 7 7 7 7 7
7 7 8 8 8 7 8 8 8 9 8 8 9 9 9 9 9 9 9 9 9 9 9 9 9 9 9 10 10 10 9 9 9 8 8 8 8 8 8 8 8 8 7 7 7 7 6 6 6
8 8 8 8 8 8 7 7 7 8 8 9 9 8 8 9 9 9 9 9 9 9 9 10 9 9 9 9 9 9 9 9 9 8 8 8 7 8 8 8 7 7 7 7 7 7 6 6 6
6 6 7 8 7 6 6 6 9 9 8 9 9 9 9 8 9 9 9 10 10 10 10 9 9 8 8 9 9 9 9 9 8 8 8 7 7 7 7 8 7 7 7 6 6 6 6 6 6
5 6 7 8 8 8 6 5 9 8 8 8 8 9 9 9 9 9 10 10 10 10 10 10 10 9 9 7 7 8 8 8 8 8 8 7 7 6 7 7 7 7 7 7 6 6 6 5 5
6 6 5 7 7 5 6 7 7 9 8 8 9 9 9 9 10 10 10 10 10 10 10 10 10 10 9 9 8 7 7 8 8 8 8 8 7 6 6 6 6 6 6 6 6 5 5 5 4
4 4 4 6 7 4 5 5 8 8 9 9 8 8 9 9 9 9 9 9 9 9 9 10 10 10 10 9 9 8 8 7 7 7 8 8 8 7 6 4 5 5 5 5 5 5 4 4 5
3 3 4 4 6 4 5 7 8 9 8 9 9 9 9 8 8 8 8 8 8 8 8 9 9 9 9 9 9 9 7 7 7 6 6 7 7 7 7 5 4 3 4 5 5 5 4 4 4
3 3 3 3 4 4 4 7 7 9 9 8 8 8 8 8 8 8 8 7 7 7 7 7 7 8 8 8 9 7 8 7 7 7 7 7 7 7 7 6 5 4 5 4 4 5 4 5 4
3 4 3 3 3 3 4 2 5 6 7 7 6 6 6 6 6 6 7 7 7 7 7 6 6 6 7 7 8 8 6 7 7 7 6 6 6 5 5 6 4 5 5 4 3 4 3 4 4
3 3 3 3 3 3 2 2 6 4 5 5 5 5 5 5 5 5 5 5 4 5 5 4 5 5 5 6 6 5 5 5 5 6 6 6 5 5 5 4 4 4 4 3 2 3 3 3 3
2 2 2 3 3 0 3 3 5 4 5 4 4 4 4 4 4 3 3 3 3 3 3 3 3 3 4 4 4 4 3 5 4 5 5 5 5 4 5 4 4 4 4 4 2 2 2 1 2
2 2 1 0 -1 -1 3 3 3 4 3 3 3 3 3 3 2 2 2 2 1 1 2 2 2 3 3 2 3 3 4 3 3 4 3 4 4 4 4 4 3 5 3 4 3 2 1 1 2
2 2 2 -1 -1 -0 2 2 4 3 3 2 2 2 2 1 1 1 1 1 1 1 1 1 1 1 2 2 2 1 2 3 1 2 3 3 3 3 3 2 1 2 3 3 3 2 1 0 -0
1 1 1 1 0 -2 1 2 2 2 2 1 1 0 -0 -0 -0 -0 -0 -0 -0 0 0 0 1 0 0 0 0 1 2 3 2 2 2 1 1 1 1 1 1 1 1 2 2 0 -0 -1 -1
0 0 -0 -1 -2 -1 0 0 1 1 1 1 0 0 0 0 -1 -1 -1 -1 -1 -1 -1 -1 -1 -1 -1 -1 0 0 1 1 2 2 0 1 -0 -1 -1 0 1 1 -1 -1 -0 -1 -0 -1 -2
-0 -1 -1 -1 -1 -4 -1 -0 -0 -0 -1 -1 -2 -3 -3 -2 -2 -3 -3 -2 -3 -3 -3 -3 -2 -2 -2 -2 -1 -1 -1 -1 -1 -2 -2 -1 -1 -1 -2 -0 -1 -1 -1 -1 -2 -2 -2 -1 -1
-2 -2 -2 -2 -3 -3 -4 -2 -3 -2 -2 -3 -4 -4 -4 -4 -3 -3 -3 -3 -3 -3 -3 -3 -3 -3 -3 -3 -3 -3 -3 -3 -3 -4 -3 -3 -2 -2 -1 -2 -2 -1 -2 -2 -3 -3 -3 -2 -2
Height
3144 3144 3144 3144 3148 3144 3144 3147 3148 3149 3149 3148 3147 3148 3149 3149 3148 3151 3147 3146 3148 3150 3150 3151 3151 3152 3153 3152 3155 3156 3158 3159 3160 3161 3162 3162 3164 3165 3165 3166 3167 3167 3168 3168 3168 3168 3170 3171 3170
3143 3144 3144 3144 3144 3143 3145 3146 3148 3148 3147 3145 3146 3146 3149 3150 3149 3149 3149 3148 3148 3149 3150 3151 3151 3151 3152 3151 3154 3155 3156 3158 3159 3160 3161 3163 3164 3164 3165 3165 3166 3166 3166 3167 3168 3168 3169 3170 3170
3143 3143 3144 3143 3141 3142 3145 3146 3147 3147 3145 3144 3145 3146 3147 3148 3148 3147 3148 3148 3147 3147 3149 3151 3151 3152 3152 3151 3152 3154 3155 3157 3158 3160 3161 3162 3162 3163 3164 3164 3165 3165 3165 3166 3166 3167 3168 3169 3170
3142 3143 3144 3141 3140 3141 3145 3146 3146 3144 3144 3145 3145 3146 3147 3146 3146 3147 3148 3148 3147 3149 3149 3150 3151 3152 3152 3152 3151 3154 3154 3156 3157 3158 3159 3160 3161 3162 3162 3163 3164 3164 3164 3164 3165 3165 3166 3168 3170
3140 3140 3140 3138 3140 3141 3143 3145 3145 3145 3145 3145 3145 3146 3147 3146 3145 3146 3147 3147 3147 3148 3150 3151 3151 3152 3152 3151 3151 3153 3154 3155 3156 3157 3158 3158 3159 3161 3162 3162 3162 3162 3163 3164 3164 3164 3165 3167 3168
3139 3139 3138 3137 3140 3141 3143 3144 3146 3144 3144 3144 3145 3145 3146 3145 3144 3144 3144 3145 3146 3147 3148 3149 3150 3151 3151 3150 3151 3152 3153 3154 3156 3157 3157 3157 3158 3159 3160 3161 3160 3160 3161 3163 3164 3164 3164 3166 3167
3137 3137 3135 3135 3137 3139 3142 3143 3143 3142 3142 3143 3144 3144 3144 3143 3143 3143 3142 3142 3143 3143 3144 3145 3145 3146 3147 3148 3149 3150 3151 3152 3154 3155 3156 3156 3156 3157 3158 3159 3159 3159 3159 3161 3162 3163 3164 3166 3166
3135 3135 3132 3133 3134 3137 3140 3139 3140 3142 3141 3142 3142 3141 3141 3141 3141 3141 3140 3140 3140 3140 3140 3140 3141 3141 3142 3144 3146 3147 3148 3150 3151 3152 3154 3154 3154 3155 3155 3156 3156 3157 3158 3159 3160 3161 3162 3163 3165
3134 3132 3130 3131 3134 3136 3138 3136 3138 3138 3138 3139 3139 3139 3139 3138 3139 3138 3138 3138 3138 3137 3137 3138 3138 3138 3138 3140 3142 3144 3146 3147 3148 3149 3150 3151 3152 3153 3153 3153 3154 3154 3156 3157 3158 3159 3160 3161 3162
3131 3128 3128 3131 3133 3133 3134 3135 3136 3134 3134 3136 3135 3135 3134 3134 3134 3135 3135 3135 3135 3134 3134 3134 3134 3134 3134 3135 3137 3140 3143 3144 3145 3146 3147 3149 3149 3150 3150 3150 3151 3151 3153 3155 3156 3156 3157 3158 3159
3126 3124 3128 3129 3130 3130 3130 3131 3132 3130 3130 3131 3129 3129 3127 3127 3128 3129 3130 3130 3130 3130 3130 3130 3131 3131 3131 3131 3133 3136 3138 3140 3141 3143 3144 3145 3146 3147 3148 3148 3148 3149 3150 3152 3153 3154 3154 3155 3157
3122 3123 3124 3124 3126 3126 3127 3127 3125 3124 3126 3126 3125 3124 3124 3123 3122 3123 3124 3125 3125 3126 3126 3126 3127 3128 3128 3129 3129 3131 3133 3135 3137 3139 3140 3141 3142 3143 3144 3145 3145 3146 3147 3148 3150 3150 3151 3153 3154
3118 3119 3120 3119 3122 3123 3123 3122 3121 3118 3121 3121 3120 3118 3117 3116 3116 3116 3117 3118 3120 3122 3122 3123 3124 3125 3125 3126 3127 3127 3129 3131 3133 3134 3136 3137 3138 3139 3139 3141 3141 3142 3143 3145 3147 3147 3148 3149 3150
3114 3113 3115 3115 3118 3119 3118 3117 3116 3116 3114 3114 3115 3114 3112 3109 3110 3109 3110 3112 3114 3117 3118 3120 3120 3121 3121 3121 3122 3123 3124 3126 3127 3128 3129 3133 3134 3134 3134 3135 3137 3137 3138 3140 3142 3143 3144 3145 3146
3110 3109 3110 3112 3113 3113 3111 3111 3111 3111 3110 3110 3110 3105 3106 3106 3107 3106 3106 3105 3106 3110 3113 3115 3116 3116 3117 3117 3117 3117 3118 3119 3120 3121 3123 3126 3129 3131 3130 3129 3131 3132 3133 3133 3136 3138 3138 3140 3141
3105 3104 3102 3106 3108 3108 3106 3103 3107 3106 3104 3105 3104 3102 3103 3103 3103 3102 3101 3102 3104 3103 3104 3104 3107 3110 3111 3112 3111 3112 3112 3113 3114 3114 3115 3117 3120 3120 3122 3125 3124 3125 3127 3128 3129 3132 3134 3135 3136
3099 3098 3099 3100 3102 3102 3101 3098 3102 3101 3099 3098 3097 3097 3097 3098 3098 3098 3098 3097 3097 3099 3100 3100 3100 3101 3104 3105 3106 3106 3107 3107 3107 3106 3107 3107 3110 3110 3113 3117 3118 3119 3118 3122 3122 3125 3128 3129 3130
3096 3095 3095 3096 3098 3096 3095 3091 3094 3095 3091 3091 3093 3093 3093 3092 3093 3093 3093 3093 3093 3094 3095 3096 3097 3096 3094 3095 3096 3097 3097 3099 3098 3098 3100 3099 3100 3101 3104 3107 3108 3109 3111 3112 3114 3117 3119 3122 3123
3094 3092 3090 3092 3095 3089 3088 3083 3084 3087 3085 3081 3084 3086 3087 3087 3087 3085 3087 3087 3088 3089 3090 3091 3088 3090 3088 3087 3086 3087 3088 3089 3088 3089 3090 3091 3091 3091 3091 3094 3096 3097 3098 3101 3107 3109 3110 3112 3115
3090 3089 3087 3086 3088 3086 3080 3075 3076 3079 3077 3078 3079 3080 3081 3081 3081 3080 3077 3078 3080 3081 3081 3082 3081 3082 3080 3079 3077 3076 3077 3078 3078 3079 3079 3081 3079 3080 3080 3083 3083 3086 3092 3093 3094 3097 3100 3101 3105
3085 3085 3085 3084 3083 3080 3075 3068 3069 3071 3070 3072 3074 3074 3075 3075 3074 3074 3072 3071 3070 3070 3071 3071 3072 3072 3070 3068 3066 3065 3064 3063 3067 3068 3069 3071 3070 3071 3071 3070 3071 3072 3076 3080 3082 3086 3089 3092 3095
3078 3082 3082 3081 3081 3078 3076 3069 3064 3065 3067 3068 3068 3068 3069 3069 3068 3068 3066 3064 3061 3058 3058 3059 3061 3061 3058 3058 3056 3054 3052 3052 3054 3056 3057 3059 3058 3058 3058 3057 3058 3060 3062 3066 3067 3071 3074 3079 3082
3076 3078 3078 3078 3077 3075 3075 3079 3053 3059 3061 3064 3065 3065 3065 3064 3064 3063 3061 3057 3054 3052 3049 3047 3047 3047 3048 3047 3046 3044 3040 3040 3042 3041 3041 3042 3045 3046 3045 3043 3043 3045 3046 3051 3054 3057 3057 3062 3068
3074 3075 3075 3074 3073 3069 3066 3071 3041 3055 3055 3057 3059 3059 3059 3057 3057 3054 3052 3050 3046 3043 3041 3040 3038 3037 3036 3035 3035 3033 3029 3027 3025 3026 3024 3028 3028 3030 3031 3030 3027 3030 3030 3030 3034 3041 3044 3049 3054
3071 3072 3072 3071 3070 3064 3060 3061 3049 3051 3051 3052 3052 3051 3050 3049 3047 3047 3046 3043 3041 3039 3037 3034 3031 3029 3026 3025 3022 3022 3018 3016 3014 3006 3008 3011 3011 3012 3014 3007 3014 3012 3009 3012 3012 3019 3025 3031 3035
3067 3069 3069 3069 3065 3060 3059 3051 3046 3049 3048 3047 3046 3046 3045 3041 3039 3040 3039 3037 3033 3031 3029 3026 3024 3022 3018 3014 3011 3010 3008 3002 2997 2987 2997 2992 2989 2998 2996 2995 2992 2995 2997 2974 3000 3002 3005 3014 3019
3063 3064 3066 3064 3061 3060 3048 3046 3046 3043 3042 3043 3042 3040 3037 3035 3035 3034 3032 3030 3026 3023 3021 3019 3017 3014 3011 3007 3004 3001 2997 2994 2992 2987 2983 2985 2980 2978 2976 2981 2986 2979 2980 2986 2981 2975 2988 2989 3001
3059 3062 3064 3065 3063 3055 3040 3040 3037 3038 3038 3038 3037 3035 3031 3031 3030 3028 3026 3023 3019 3016 3013 3012 3010 3008 3005 3001 2998 2994 2990 2985 2978 2973 2976 2977 2972 2967 2968 2968 2967 2966 2963 2966 2974 2974 2983 2986 2991
3054 3054 3057 3060 3057 3052 3046 3034 3032 3034 3035 3033 3031 3029 3027 3025 3024 3022 3020 3017 3014 3010 3007 3006 3004 3002 3000 2996 2992 2989 2984 2979 2973 2968 2965 2962 2962 2961 2960 2955 2958 2957 2957 2961 2968 2975 2975 2978 2983
3047 3049 3050 3051 3048 3045 3044 3027 3031 3030 3030 3028 3025 3023 3021 3019 3017 3015 3014 3011 3008 3005 3003 3001 2998 2997 2995 2992 2987 2985 2980 2977 2971 2967 2963 2961 2958 2954 2956 2954 2950 2948 2952 2957 2961 2965 2969 2972 2975
Wind_Speed
6 6 6 6 6 5 2 2 2 12 19 16 9 1 1 8 13 4 8 7 13 14 18 14 13 11 10 7 5 5 5 7 9 10 10 10 10 9 9 9 9 8 8 9 9 9 8 5 4
7 7 7 8 8 5 2 5 3 14 18 10 8 3 6 5 6 3 7 4 11 14 18 15 16 15 14 11 8 6 7 8 10 11 12 12 12 12 12 11 11 11 11 12 12 11 9 6 4
7 8 8 6 10 7 2 3 10 11 14 10 7 6 7 4 7 10 10 11 14 20 19 19 20 19 17 14 12 9 7 9 11 11 12 13 13 14 13 13 13 13 15 14 13 13 10 7 5
7 8 8 12 14 11 6 3 8 7 14 4 2 5 7 12 9 8 8 12 7 11 17 19 21 20 19 16 15 13 10 10 11 11 12 12 13 14 14 14 14 15 16 15 14 13 11 8 6
8 8 11 14 13 13 11 1 6 10 17 12 8 8 6 10 13 8 11 6 3 8 6 12 19 22 21 19 18 16 14 12 12 12 11 12 12 13 14 14 14 14 15 15 14 13 11 7 7
10 10 13 17 14 10 7 5 4 9 9 16 13 8 8 10 9 12 12 7 4 4 6 12 14 20 23 23 21 19 17 14 13 14 12 12 12 13 14 14 14 14 13 13 12 12 11 8 7
11 13 19 20 19 13 4 2 7 8 6 11 12 12 6 8 6 4 7 7 9 9 10 10 14 19 26 27 25 22 20 17 15 15 14 13 13 13 13 13 13 14 13 11 11 11 10 8 7
14 18 23 24 22 16 6 7 9 9 8 12 13 13 15 14 9 7 8 9 9 9 9 12 14 17 26 30 30 27 24 20 18 17 16 15 15 15 14 14 13 14 14 12 10 10 9 9 8
18 23 26 26 21 18 15 20 11 14 11 8 12 15 17 17 16 15 15 14 12 12 11 11 13 16 23 30 33 31 27 24 22 20 19 17 16 15 15 15 16 15 15 13 11 11 11 11 10
20 27 26 23 23 27 24 25 22 23 18 14 14 15 20 21 21 21 23 20 15 14 12 12 13 15 19 27 33 33 31 28 26 24 22 18 18 18 18 17 18 17 16 14 12 12 11 11 11
26 29 25 26 28 30 30 29 25 27 27 23 25 24 25 25 25 27 26 26 22 19 16 13 14 14 17 23 29 33 33 31 29 27 24 23 21 20 19 19 18 19 17 15 13 13 12 12 12
28 29 29 31 29 31 32 31 32 34 31 32 33 32 30 31 32 30 31 30 24 18 17 16 14 14 14 16 22 27 30 31 31 31 29 28 24 22 21 21 21 21 20 18 17 15 14 13 13
26 28 29 32 31 31 32 33 35 37 34 36 37 38 38 38 37 38 37 33 28 23 22 19 18 18 18 17 16 24 30 31 33 35 34 33 28 25 24 25 24 24 23 21 19 18 16 16 16
25 27 29 31 30 31 32 33 32 31 31 29 28 29 28 27 26 26 28 28 31 28 27 23 22 23 23 22 21 20 22 29 34 38 38 36 34 30 29 28 28 27 25 24 23 21 19 19 19
27 31 30 27 26 25 25 26 26 24 26 25 19 15 15 16 17 23 26 24 22 24 26 25 27 25 26 27 27 27 23 24 31 37 41 40 37 35 35 33 32 31 30 28 27 26 23 22 21
27 28 32 28 25 24 22 22 22 21 23 21 21 21 20 18 17 17 18 25 28 27 24 28 32 32 31 28 29 29 29 28 28 34 40 42 42 39 40 41 36 35 34 32 30 29 26 25 24
23 23 25 27 21 23 16 28 23 23 22 23 24 25 26 25 24 22 22 25 27 29 29 28 27 30 32 37 38 37 35 33 35 32 37 43 43 47 44 47 41 39 35 37 35 32 31 30 28
20 18 19 23 19 26 31 32 24 22 28 28 28 28 31 33 33 32 27 26 27 26 29 29 30 28 28 33 38 41 41 40 38 36 33 38 45 48 49 50 46 41 39 40 40 37 35 34 32
23 26 26 24 24 32 29 32 30 25 27 32 31 31 32 34 35 38 37 35 34 32 30 32 34 30 33 33 35 37 40 43 44 41 39 35 37 44 52 50 49 48 43 44 42 43 40 40 38
23 24 27 29 22 26 31 38 34 30 28 27 29 31 32 31 31 33 35 36 35 34 35 35 37 38 38 39 40 37 40 45 48 48 44 40 37 38 49 56 53 57 53 54 56 52 46 45 42
25 26 26 26 25 27 30 32 14 16 17 26 27 29 31 35 38 38 37 35 33 35 38 35 34 36 41 45 47 45 44 47 49 49 49 46 45 41 44 54 60 60 60 60 52 54 47 49 47
30 27 22 12 10 9 15 10 22 29 29 23 22 28 30 25 28 29 31 39 50 54 49 43 40 38 40 46 49 54 51 52 49 49 51 53 47 46 48 50 58 63 59 61 53 66 55 55 53
15 12 12 10 12 17 23 10 26 15 23 19 25 23 24 30 33 40 48 43 38 38 40 40 40 39 38 40 45 47 53 53 54 55 56 55 56 50 48 51 54 62 68 68 68 68 60 60 54
16 15 16 17 17 9 25 19 36 23 24 19 23 27 31 37 41 41 39 36 37 39 40 42 44 45 47 45 41 39 48 55 56 56 56 57 57 57 57 55 57 57 65 68 70 67 65 60 52
16 12 3 3 4 7 2 13 29 27 29 31 30 30 31 31 32 30 32 35 37 41 43 45 42 40 40 39 39 39 45 52 61 53 60 63 59 60 62 59 63 72 69 65 73 69 69 70 64
9 9 6 5 3 4 21 11 17 22 26 30 31 33 33 31 33 34 36 39 40 40 39 36 33 33 35 36 32 36 42 56 41 49 55 58 55 63 58 58 54 59 71 73 69 65 70 71 67
7 11 14 15 18 5 12 20 26 32 29 27 23 22 25 30 31 31 33 35 35 33 33 31 34 30 28 30 29 25 27 42 45 51 50 48 40 43 50 60 56 66 68 80 70 63 57 64 63
13 11 6 5 3 5 10 17 22 25 24 27 26 29 33 35 32 32 33 32 29 32 32 27 21 22 22 25 26 26 27 26 27 31 29 37 35 32 39 44 43 46 45 46 56 49 58 59 62
14 17 15 14 15 4 11 16 20 22 22 19 19 22 28 31 34 32 35 36 28 24 22 22 23 24 25 23 21 25 29 27 24 24 23 23 27 29 28 32 37 34 34 39 38 40 43 47 52
15 18 18 17 9 18 14 35 24 29 31 30 29 33 36 38 37 41 29 30 22 24 26 27 22 26 21 18 21 25 25 24 24 22 17 16 20 26 31 23 26 24 23 25 25 27 34 37 40
Wind_Direction
250 259 257 250 249 236 216 137 4 354 350 346 350 270 286 311 304 9 336 279 244 226 217 225 218 211 207 175 203 222 241 239 232 232 234 232 229 232 229 224 230 233 238 244 248 254 258 263 268
249 245 248 260 263 252 303 91 13 345 343 325 305 228 302 331 330 5 322 290 240 225 213 228 224 212 211 189 204 216 232 243 239 241 241 242 243 243 241 243 244 246 249 255 261 261 264 266 258
240 239 246 256 257 262 128 18 344 351 1 317 300 311 298 291 332 251 295 271 269 244 218 227 225 217 214 201 202 217 227 243 245 242 244 247 249 249 250 252 255 254 254 255 260 263 262 256 237
241 241 249 250 258 272 278 32 16 3 27 34 280 298 299 321 316 246 284 332 275 259 225 225 229 227 221 215 206 215 223 236 248 248 246 249 253 254 252 249 253 257 258 259 257 259 257 247 225
251 254 253 259 269 282 301 266 348 15 23 2 356 336 317 329 326 306 310 307 318 258 264 255 242 236 231 227 218 218 220 231 246 251 252 249 251 253 253 248 246 252 261 260 259 256 250 234 215
247 256 258 268 283 295 307 294 353 341 7 12 344 337 349 342 331 314 295 303 292 286 260 261 265 250 242 239 229 224 224 228 241 247 249 250 244 247 250 250 245 242 247 257 259 262 258 232 214
248 257 263 272 281 287 333 319 331 318 333 346 354 331 315 310 335 282 287 291 301 301 286 258 243 247 247 242 236 230 228 227 236 245 249 249 245 241 244 245 247 241 237 242 255 259 259 246 209
249 256 264 268 279 287 281 287 289 294 276 320 327 319 316 307 290 272 276 292 293 309 309 275 257 247 244 242 237 234 231 229 232 240 247 248 248 244 239 242 239 242 239 238 238 240 239 239 225
249 251 259 268 280 293 288 291 266 282 299 316 322 312 304 301 296 282 282 281 283 293 306 290 271 271 247 241 238 238 236 234 232 236 242 244 248 248 242 238 237 235 238 234 232 236 236 234 236
244 252 262 275 284 288 289 290 287 280 270 273 290 289 291 294 290 287 287 287 288 279 285 291 288 280 257 241 238 240 242 241 239 238 242 244 245 245 243 237 239 237 239 239 233 233 235 241 239
251 255 264 269 279 283 283 287 282 283 279 280 292 291 293 293 295 297 295 289 282 280 266 269 289 286 277 250 240 240 243 246 247 245 244 243 243 245 246 244 241 241 242 242 237 236 237 240 242
259 259 264 270 271 275 281 283 285 283 286 289 290 291 290 291 290 291 293 293 286 276 269 257 257 273 287 272 251 246 247 251 252 251 248 245 243 244 245 244 238 240 240 239 236 235 240 243 245
266 272 270 275 277 279 283 283 285 287 293 293 292 290 289 288 288 291 293 284 283 288 280 267 258 263 278 278 268 258 255 254 253 253 251 247 243 243 241 243 239 237 238 239 241 237 237 241 245
274 275 277 279 283 284 284 285 286 289 290 292 294 291 289 288 290 287 288 293 282 283 286 276 271 261 262 267 271 268 266 261 257 256 252 251 249 242 241 237 239 236 234 238 238 236 234 237 241
276 280 282 285 294 299 301 292 293 294 295 291 283 270 282 284 295 287 283 277 278 281 284 286 286 275 269 271 271 270 267 267 261 261 256 251 249 250 248 239 237 236 232 233 238 240 235 239 242
275 278 285 295 303 304 296 298 298 293 289 283 260 258 270 284 280 288 298 282 279 269 262 267 277 280 275 271 267 272 273 270 275 264 261 250 249 242 250 249 237 235 236 233 235 238 239 239 240
272 270 284 292 289 289 289 298 297 296 289 277 273 270 267 271 278 277 277 277 273 275 274 274 270 273 272 269 267 270 275 275 275 279 264 262 243 244 247 246 243 239 235 241 233 236 239 237 238
268 275 272 277 289 293 293 290 293 286 284 281 274 272 273 275 274 271 271 273 274 276 274 275 276 270 263 264 267 266 267 269 266 272 277 268 260 247 243 242 240 238 240 241 240 234 235 238 237
267 272 274 277 282 302 300 296 290 281 273 277 278 278 279 281 279 276 278 278 280 283 282 279 271 271 271 266 264 266 265 267 266 268 271 271 272 257 245 239 237 236 232 239 244 239 235 236 236
262 268 273 286 295 296 300 293 291 289 283 275 278 286 289 287 288 289 287 290 292 290 290 286 282 280 276 271 268 259 262 265 266 265 265 266 264 266 257 244 239 236 239 238 240 238 235 237 237
262 263 274 284 299 290 297 298 300 290 288 300 297 293 292 290 291 290 290 290 291 295 297 291 289 285 280 272 270 263 255 258 261 261 262 262 264 262 266 251 245 237 239 237 236 243 242 240 239
260 269 273 280 283 282 292 298 264 286 291 293 291 291 289 283 283 286 291 293 291 294 295 291 289 285 278 276 271 268 269 261 263 263 265 263 263 261 264 258 245 239 235 235 232 236 231 241 240
259 265 278 271 265 281 278 258 280 284 288 280 286 281 279 282 283 290 294 294 289 288 290 295 294 293 287 278 273 270 274 268 266 260 259 259 259 259 258 264 247 244 243 236 233 239 229 234 236
267 276 283 278 267 257 262 225 279 281 290 287 286 284 284 288 290 289 289 289 289 291 294 295 297 294 291 292 285 276 264 272 265 267 261 261 258 259 258 259 258 248 243 239 229 230 231 235 237
260 267 298 291 182 234 306 231 252 277 284 289 291 291 290 291 285 283 286 288 293 294 294 294 295 294 293 294 287 286 270 265 264 255 258 266 263 258 258 262 256 246 241 238 232 229 229 232 227
242 222 207 237 224 268 291 259 271 281 288 295 294 294 299 290 285 292 292 291 291 290 291 292 299 302 305 301 296 285 283 265 278 255 259 260 258 258 265 255 257 253 256 230 233 230 228 227 226
233 233 251 257 274 294 260 262 274 281 285 285 285 288 285 284 287 288 289 292 289 289 292 295 301 306 307 305 309 312 296 284 277 287 277 270 270 265 260 260 260 261 248 246 243 225 223 218 223
241 256 237 208 274 243 260 283 273 284 281 288 289 286 282 284 288 293 291 288 286 289 289 298 299 309 314 318 324 323 314 308 310 309 289 271 283 265 260 254 266 256 250 236 236 235 233 226 227
260 255 248 256 244 232 279 275 275 280 280 278 283 292 296 300 297 298 296 290 284 286 295 304 308 317 324 328 326 326 321 312 315 331 307 298 286 307 298 267 255 242 242 237 242 242 235 239 234
257 261 256 235 255 250 268 267 272 277 279 281 292 305 306 301 298 306 298 293 280 291 299 303 299 312 316 321 325 324 325 331 324 327 323 336 303 279 286 278 250 242 243 240 245 251 247 243 241